Location: B?dimalle
(17.1788°N, 80.5377°E)
Time: 20:01:35
(UTC+00:00)

Transit 2A - All Passes

Search period start: 15 February 2026 00:00
Search period end: 25 February 2026 00:00
Orbit: 589 x 955 km, 66.7° (Epoch: 15 February)

Date Brightness Start Highest point End Pass type
(mag) Time Alt. Az. Time Alt. Az. Time Alt. Az.
15 Feb - 06:27:43 10° S 06:33:12 51° ESE 06:39:06 10° NE daylight
15 Feb - 08:13:02 10° W 08:16:29 16° WNW 08:20:04 10° NNW daylight
15 Feb - 17:10:38 10° N 17:15:46 37° ENE 17:20:24 10° SE night (unlit)
15 Feb - 18:55:25 10° WNW 18:58:16 15° WSW 19:00:59 10° SW night (unlit)
16 Feb - 05:52:05 10° SSE 05:57:00 30° ESE 06:02:14 10° NE daylight
16 Feb - 07:35:11 10° WSW 07:39:55 26° WNW 07:44:58 10° N daylight
16 Feb - 16:35:02 10° NNE 16:39:17 22° ENE 16:43:13 10° ESE night (unlit)
16 Feb - 18:17:43 10° NW 18:22:09 26° WSW 18:26:14 10° SSW night (unlit)
17 Feb - 05:17:05 10° SE 05:20:51 18° ESE 05:24:47 10° ENE daylight
17 Feb - 06:58:04 10° SW 07:03:27 41° WNW 07:09:16 10° N daylight
17 Feb - 16:00:13 10° NNE 16:02:42 13° ENE 16:05:06 10° E night (unlit)
17 Feb - 17:40:47 10° NW 17:45:59 47° WSW 17:50:40 10° S night (unlit)
18 Feb - 06:21:22 10° SSW 06:27:04 68° WNW 06:33:14 10° NNE daylight
18 Feb - 17:04:15 10° NNW 17:09:44 84° WSW 17:14:39 10° SSE night (unlit)
19 Feb - 05:45:03 10° SSW 05:50:45 74° ESE 05:56:55 10° NNE daylight
19 Feb - 07:32:44 10° WNW 07:34:17 11° WNW 07:35:52 10° NW daylight
19 Feb - 16:28:01 10° N 16:33:24 55° ENE 16:38:13 10° SE night (unlit)
20 Feb - 05:09:07 10° S 05:14:30 44° ESE 05:20:18 10° NE daylight
20 Feb - 06:53:40 10° WSW 06:57:41 19° WNW 07:01:52 10° NNW daylight
20 Feb - 15:52:07 10° N 15:56:58 31° ENE 16:01:23 10° SE night (unlit)
20 Feb - 17:36:10 10° WNW 17:39:34 17° WSW 17:42:47 10° SW night (unlit)
21 Feb - 04:33:37 10° SSE 04:38:19 26° ESE 04:43:17 10° NE daylight
21 Feb - 06:16:06 10° WSW 06:21:09 30° WNW 06:26:31 10° N daylight
21 Feb - 15:16:41 10° NNE 15:20:27 19° ENE 15:23:58 10° ESE night (unlit)
21 Feb - 16:58:47 10° NW 17:03:26 31° WSW 17:07:43 10° SSW night (unlit)
22 Feb - 03:58:55 10° SE 04:02:11 15° ESE 04:05:33 10° ENE daylight
22 Feb - 05:39:07 10° SW 05:44:42 48° WNW 05:50:42 10° N daylight
22 Feb - 14:42:43 10° NE 14:43:51 11° ENE 14:44:57 10° ENE night (unlit)
22 Feb - 16:21:58 10° NNW 16:27:15 56° WSW 16:31:59 10° S night (unlit)
23 Feb - 05:02:33 10° SSW 05:08:20 80° WNW 05:14:34 10° NNE daylight
23 Feb - 15:45:32 10° NNW 15:50:58 81° ENE 15:55:49 10° SSE night (unlit)
24 Feb - 04:26:21 10° S 04:32:02 63° ESE 04:38:10 10° NNE daylight
24 Feb - 06:12:42 10° W 06:15:27 13° WNW 06:18:16 10° NNW daylight
24 Feb - 15:09:24 10° N 15:14:36 45° ENE 15:19:17 10° SE visible
24 Feb - 16:55:35 10° W 16:56:58 11° WSW 16:58:19 10° WSW night (unlit)
